Погода в Старом Чирчиме

Россия / Пензенская область     52°45′51″N   46°21′48″E
темп.,
°C
ветер,
м/с
пор.,
м/с
влажн.,
%
обл.,
%
осадки,
мм/ч
давл.,
гПа
погр.,
м
4 марта, чт
чт400:00−10з489782 0.0 1012137
03:00−8зюз6119683 0.1 1011243
06:00−4зюз71295100 0.2 1009573
09:00−2зюз81393100 0.7 1007977
12:000зюз101694100 0.3 10041033
15:000зюз101693100 0.4 1003887
18:00−1зюз101689100 0.0 1003920
21:00−1зюз81592100 0.1 10021005
5 марта, пт
пт500:00−1зюз71396100 0.4 1001864
03:00−1з61295100 1.0 1001671
06:00−2з51196100 0.2 1002539
09:00−1з6995100 0.6 1004605
12:00−2ссз359299 0.3 1006531
15:00−1сз468496 0.4 1008760
18:00−7сз349138 0.0 101028
21:00−9зсз239444 0.0 101321
6 марта, сб
сб600:00−11зсз239487 0.0 101421
03:00−11зсз239693 0.0 101528
06:00−11сз3496100 0.0 101556
09:00−9ссз3695100 0.0 1015206
12:00−7ссз4787100 0.0 1015492
15:00−6ссз4684100 0.0 1014669
18:00−12сз478722 0.0 101593
21:00−13сз449812 0.0 101678
7 марта, вс
вс700:00−16сз349890 0.0 101663
03:00−18зсз339859 0.0 101726
06:00−19зюз23960 0.0 101820
09:00−14юз46930 0.0 1017194
12:00−9юз7129269 0.1 1014565
15:00−6юз9149185 0.3 10111163
18:00−5юз81585100 0.3 10081058
21:00−6юз101986100 0.5 10041110
8 марта, пн
пн800:00−5юз111892100 0.4 10011006
03:00−4зюз101694100 1.1 1000990
06:00−8з488596 0.4 1001158
09:00−8зюз6128480 0.4 1002536
12:00−5з9138596 0.2 10031488
15:00−6з7117974 0.4 10051127
18:00−10з48887 0.0 1008141
21:00−13з47944 0.0 1010100